Regional Weather Roundup
Issued by NWS

Home | Current Version | Previous Version | Text Only | Print | Product List | Glossary On
Versions: 1 2 3 4 5 6 7 8 9 10 11 12 13 14 15 16 17 18 19 20 21 22 23 24 25 26 27 28 29 30 31 32 33 34 35 36 37 38 39 40 41 42 43 44 45 46 47 48 49 50
020
ASUS44 KJAN 181910
RWRMS

MISSISSIPPI HOURLY WEATHER ROUNDUP
NATIONAL WEATHER SERVICE JACKSON MS
200 PM CDT FRI APR 18 2014

NOTE: "FAIR: INDICATES FEW OR NO CLOUDS BELOW 12,000 FEET WITH NO
SIGNIFICANT WEATHER AND/OR OBSTRUCTIONS TO VISIBILITY.

MSZ001>002-007>008-010>013-018>021-025>028-034>036-182000-
NORTHWEST MISSISSIPPI

CITY           SKY/WX    TMP DP  RH WIND       PRES   REMARKS
CLARKSDALE       N/A     68  50  52 N13       30.21S
CLEVELAND      CLOUDY    71  57  60 N9        30.18F
GREENWOOD      PTSUNNY   73  53  49 NE7       30.17F
GREENVILLE     MOSUNNY   75  55  49 NE13G20   30.17F
GRENADA        MOCLDY    70  55  60 E9        30.19F
OLIVE BRANCH   PTSUNNY   70  52  52 N9        30.22F
OXFORD         PTSUNNY   68  50  52 E7        30.21F
TUNICA         MOCLDY    70  50  49 N9        30.21F
$$

MSZ003>006-009-014>017-022>024-029>033-037>039-182000-
NORTHEAST MISSISSIPPI

CITY           SKY/WX    TMP DP  RH WIND       PRES   REMARKS
BELMONT        CLOUDY    57  53  87 NE6       30.24S
COLUMBUS AFB   CLOUDY    64  53  66 VRB3      30.20F
CORINTH        CLOUDY    66  48  52 E7        30.22F
GOLDN TRIANGLE CLOUDY    63  54  72 NE7       30.23F
STARKVILLE     CLOUDY    61  54  77 CALM      30.21S
TUPELO         CLOUDY    61  50  67 E7        30.23F
$$

MSZ040-058-182000-
CENTRAL MISSISSIPPI

CITY           SKY/WX    TMP DP  RH WIND       PRES   REMARKS
JACKSON INTL   PTSUNNY   71  57  61 N8G17     30.14F
JACKSON HAWKNS PTSUNNY   71  55  56 N7        30.15F
MERIDIAN KEY   CLOUDY    59  54  83 NE8       30.16F
MERIDIAN NAS   CLOUDY    61  53  75 NE10      30.17F
RAYMOND        MOCLDY    72  66  83 NE6       30.14F
VICKSBURG      NOT AVBL
$$

MSZ059>079-182000-
SOUTH MISSISSIPPI

CITY           SKY/WX    TMP DP  RH WIND       PRES   REMARKS
BROOKHAVEN     MOCLDY    70  57  64 N9        30.14S
COLUMBIA       MOCLDY    68  57  68 MISG      30.11F
HATTIESBURG    CLOUDY    61  57  87 N14G20    30.12F
MCCOMB         MOSUNNY   72  56  57 NE8G20    30.10F
NATCHEZ        PTSUNNY   73  57  56 N13       30.11S
PINE BELT      CLOUDY    61  54  77 N14       30.14S
$$

MSZ080>082-182000-
COASTAL MISSISSIPPI

CITY           SKY/WX    TMP DP  RH WIND       PRES   REMARKS
BAY ST LOUIS     N/A     64  57  77 N15       30.07F
BILOXI         CLOUDY    68  59  73 NE14G24   30.04F
PASCAGOULA     CLOUDY    63  57  81 NE15      30.05R
GULFPORT       CLOUDY    70  58  65 N14G23    30.04F
$$



USA.gov is the U.S. government's official web portal to all federal, state and local government web resources and services.